OK1MNP-5 Weather Reports


time (UTC)temp
F
wind
direction
speed
knots
gust
knots
rain 1hr
in
rain 24hr
in
rain mn
in
humidity
%
barometer
mb
20260905165756 0 0 0.0 0.0 0.00 0.00 0.00 1014.3
20260905165007 0 0 0.0 0.0 0.00 0.00 0.00 1014.2
20260905164218 0 0 0.0 0.0 0.00 0.00 0.00 1014.1
20260905163429 0 0 0.0 0.0 0.00 0.00 0.00 1013.8
20260905162637 0 0 0.0 0.0 0.00 0.00 0.00 1013.8
20260905161846 0 0 0.0 0.0 0.00 0.00 0.00 1013.8
20260905161058 0 0 0.0 0.0 0.00 0.00 0.00 1013.7
20260905160248 0 0 0.0 0.0 0.00 0.00 0.00 1013.6
20260905155501 0 0 0.0 0.0 0.00 0.00 0.00 1013.6
20260905154713 0 0 0.0 0.0 0.00 0.00 0.00 1013.6
20260905153926 0 0 0.0 0.0 0.00 0.00 0.00 1013.6
20260905153133 0 0 0.0 0.0 0.00 0.00 0.00 1013.5
20260905152343 0 0 0.0 0.0 0.00 0.00 0.00 1013.4
20260905151554 0 0 0.0 0.0 0.00 0.00 0.00 1013.4
20260905150805 0 0 0.0 0.0 0.00 0.00 0.00 1013.3
20260905150018 0 0 0.0 0.0 0.00 0.00 0.00 1013.3
20260905145229 0 0 0.0 0.0 0.00 0.00 0.00 1013.1
20260905144439 0 0 0.0 0.0 0.00 0.00 0.00 1013.0
20260905143652 0 0 0.0 0.0 0.00 0.00 0.00 1013.1
20260905142859 0 0 0.0 0.0 0.00 0.00 0.00 1013.0
20260905142112 0 0 0.0 0.0 0.00 0.00 0.00 1012.9
20260905141325 0 0 0.0 0.0 0.00 0.00 0.00 1012.9
20260905140536 0 0 0.0 0.0 0.00 0.00 0.00 1013.0
20260905135748 0 0 0.0 0.0 0.00 0.00 0.00 1013.0
20260905135000 0 0 0.0 0.0 0.00 0.00 0.00 1013.0
20260905134213 0 0 0.0 0.0 0.00 0.00 0.00 1012.9
20260905133424 0 0 0.0 0.0 0.00 0.00 0.00 1012.8
20260905132637 0 0 0.0 0.0 0.00 0.00 0.00 1013.0
20260905131847 0 0 0.0 0.0 0.00 0.00 0.00 1012.9
20260905131059 0 0 0.0 0.0 0.00 0.00 0.00 1013.1
20260905130312 0 0 0.0 0.0 0.00 0.00 0.00 1013.1
20260905125523 0 0 0.0 0.0 0.00 0.00 0.00 1013.2
20260905124733 0 0 0.0 0.0 0.00 0.00 0.00 1013.2
20260905123947 0 0 0.0 0.0 0.00 0.00 0.00 1013.3
20260905123159 0 0 0.0 0.0 0.00 0.00 0.00 1013.4
20260905122411 0 0 0.0 0.0 0.00 0.00 0.00 1013.2
20260905121624 0 0 0.0 0.0 0.00 0.00 0.00 1013.3
20260905120837 0 0 0.0 0.0 0.00 0.00 0.00 1013.2
20260905120048 0 0 0.0 0.0 0.00 0.00 0.00 1013.2
20260905115300 0 0 0.0 0.0 0.00 0.00 0.00 1013.1
20260905114512 0 0 0.0 0.0 0.00 0.00 0.00 1013.1
20260905113724 0 0 0.0 0.0 0.00 0.00 0.00 1013.1
20260905112936 0 0 0.0 0.0 0.00 0.00 0.00 1013.1
20260905112149 0 0 0.0 0.0 0.00 0.00 0.00 1013.0
20260905111402 0 0 0.0 0.0 0.00 0.00 0.00 1013.0
20260905110614 0 0 0.0 0.0 0.00 0.00 0.00 1012.8
20260905105827 0 0 0.0 0.0 0.00 0.00 0.00 1012.9
20260905105038 0 0 0.0 0.0 0.00 0.00 0.00 1012.8
20260905104251 0 0 0.0 0.0 0.00 0.00 0.00 1012.7
20260905103504 0 0 0.0 0.0 0.00 0.00 0.00 1012.7
20260905102715 0 0 0.0 0.0 0.00 0.00 0.00 1012.4
20260905101928 0 0 0.0 0.0 0.00 0.00 0.00 1012.3
20260905101139 0 0 0.0 0.0 0.00 0.00 0.00 1012.1
20260905100353 0 0 0.0 0.0 0.00 0.00 0.00 1011.6
20260905095604 110 0 0.0 0.0 0.00 0.00 0.00 1010.5
20260905094817 111 0 0.0 0.0 0.00 0.00 0.00 1010.5
20260905094030 0 0 0.0 0.0 0.00 0.00 0.00 1011.5
20260905093241 0 0 0.0 0.0 0.00 0.00 0.00 1012.0
20260905092452 102 0 0.0 0.0 0.00 0.00 0.00 1011.1
20260905091659 0 0 0.0 0.0 0.00 0.00 0.00 1011.8
20260905090911 110 0 0.0 0.0 0.00 0.00 0.00 1010.5
20260905090124 114 0 0.0 0.0 0.00 0.00 0.00 1010.3
20260905085336 0 0 0.0 0.0 0.00 0.00 0.00 1012.0
20260905084549 0 0 0.0 0.0 0.00 0.00 0.00 1011.3
20260905083801 0 0 0.0 0.0 0.00 0.00 0.00 1011.0
20260905083013 0 0 0.0 0.0 0.00 0.00 0.00 1011.6
20260905082226 0 0 0.0 0.0 0.00 0.00 0.00 1011.4
20260905081438 0 0 0.0 0.0 0.00 0.00 0.00 1011.5
20260905080651 0 0 0.0 0.0 0.00 0.00 0.00 1011.1
20260905075900 0 0 0.0 0.0 0.00 0.00 0.00 1011.4
20260905075112 0 0 0.0 0.0 0.00 0.00 0.00 1012.0
20260905074325 0 0 0.0 0.0 0.00 0.00 0.00 1012.1
20260905073537 0 0 0.0 0.0 0.00 0.00 0.00 1011.9
20260905072747 0 0 0.0 0.0 0.00 0.00 0.00 1011.1
20260905072000 0 0 0.0 0.0 0.00 0.00 0.00 1011.4
20260905071213 0 0 0.0 0.0 0.00 0.00 0.00 1011.8
20260905070425 0 0 0.0 0.0 0.00 0.00 0.00 1011.2
20260905065638 0 0 0.0 0.0 0.00 0.00 0.00 1011.3
20260905064850 0 0 0.0 0.0 0.00 0.00 0.00 1012.2
20260905064103 0 0 0.0 0.0 0.00 0.00 0.00 1012.5
20260905063316 0 0 0.0 0.0 0.00 0.00 0.00 1012.3
20260905062528 0 0 0.0 0.0 0.00 0.00 0.00 1012.2
20260905061739 0 0 0.0 0.0 0.00 0.00 0.00 1012.5
20260905060951 0 0 0.0 0.0 0.00 0.00 0.00 1012.5
20260905060203 0 0 0.0 0.0 0.00 0.00 0.00 1012.4
20260905055416 0 0 0.0 0.0 0.00 0.00 0.00 1012.3
20260905054628 0 0 0.0 0.0 0.00 0.00 0.00 1012.3
20260905053841 0 0 0.0 0.0 0.00 0.00 0.00 1011.8
20260905053053 0 0 0.0 0.0 0.00 0.00 0.00 1011.7
20260905052306 0 0 0.0 0.0 0.00 0.00 0.00 1011.9
20260905051518 0 0 0.0 0.0 0.00 0.00 0.00 1011.7
20260905050730 0 0 0.0 0.0 0.00 0.00 0.00 1010.3
20260905045942 0 0 0.0 0.0 0.00 0.00 0.00 1010.7
20260905045155 0 0 0.0 0.0 0.00 0.00 0.00 1011.1
20260905044408 0 0 0.0 0.0 0.00 0.00 0.00 1011.2
20260905043621 0 0 0.0 0.0 0.00 0.00 0.00 1011.3
20260905042834 0 0 0.0 0.0 0.00 0.00 0.00 1011.4
20260905042046 0 0 0.0 0.0 0.00 0.00 0.00 1011.3
20260905041258 0 0 0.0 0.0 0.00 0.00 0.00 1010.8
20260905040510 0 0 0.0 0.0 0.00 0.00 0.00 1010.4
20260905035723 0 0 0.0 0.0 0.00 0.00 0.00 1010.6
20260905034936 0 0 0.0 0.0 0.00 0.00 0.00 1011.1
20260905034149 0 0 0.0 0.0 0.00 0.00 0.00 1011.0
20260905033402 0 0 0.0 0.0 0.00 0.00 0.00 1010.6
20260905032613 0 0 0.0 0.0 0.00 0.00 0.00 1010.1
20260905031825 0 0 0.0 0.0 0.00 0.00 0.00 1009.9
20260905031038 0 0 0.0 0.0 0.00 0.00 0.00 1009.7
20260905030251 0 0 0.0 0.0 0.00 0.00 0.00 1009.9
20260905025503 0 0 0.0 0.0 0.00 0.00 0.00 1009.9
20260905024716 0 0 0.0 0.0 0.00 0.00 0.00 1009.9
20260905023928 0 0 0.0 0.0 0.00 0.00 0.00 1010.0
20260905023140 0 0 0.0 0.0 0.00 0.00 0.00 1009.6
20260905022353 0 0 0.0 0.0 0.00 0.00 0.00 1009.8
20260905021605 0 0 0.0 0.0 0.00 0.00 0.00 1010.0
20260905020816 0 0 0.0 0.0 0.00 0.00 0.00 1009.6
20260905020028 0 0 0.0 0.0 0.00 0.00 0.00 1009.4
20260905015240 0 0 0.0 0.0 0.00 0.00 0.00 1009.4
20260905014452 0 0 0.0 0.0 0.00 0.00 0.00 1009.4
20260905013704 0 0 0.0 0.0 0.00 0.00 0.00 1009.2
20260905012914 0 0 0.0 0.0 0.00 0.00 0.00 1009.1
20260905012127 0 0 0.0 0.0 0.00 0.00 0.00 1009.1
20260905011340 0 0 0.0 0.0 0.00 0.00 0.00 1009.3
20260905010551 0 0 0.0 0.0 0.00 0.00 0.00 1008.9
20260905005803 0 0 0.0 0.0 0.00 0.00 0.00 1008.9
20260905005016 0 0 0.0 0.0 0.00 0.00 0.00 1009.0
20260905004228 0 0 0.0 0.0 0.00 0.00 0.00 1008.9
20260905003441 0 0 0.0 0.0 0.00 0.00 0.00 1008.8
20260905002653 0 0 0.0 0.0 0.00 0.00 0.00 1008.5
20260905001906 0 0 0.0 0.0 0.00 0.00 0.00 1008.5
20260905001118 0 0 0.0 0.0 0.00 0.00 0.00 1008.3
20260905000329 0 0 0.0 0.0 0.00 0.00 0.00 1008.4
20260904235541 0 0 0.0 0.0 0.00 0.00 0.00 1007.9
20260904234754 0 0 0.0 0.0 0.00 0.00 0.00 1007.1
20260904234004 0 0 0.0 0.0 0.00 0.00 0.00 1007.1
20260904233215 0 0 0.0 0.0 0.00 0.00 0.00 1007.0
20260904232428 0 0 0.0 0.0 0.00 0.00 0.00 1007.0
20260904231641 0 0 0.0 0.0 0.00 0.00 0.00 1006.6
20260904230854 0 0 0.0 0.0 0.00 0.00 0.00 1006.3
20260904230105 0 0 0.0 0.0 0.00 0.00 0.00 1005.9
20260904225317 0 0 0.0 0.0 0.00 0.00 0.00 1005.6
20260904224530 0 0 0.0 0.0 0.00 0.00 0.00 1005.4
20260904223732 0 0 0.0 0.0 0.00 0.00 0.00 1004.9
20260904222942 0 0 0.0 0.0 0.00 0.00 0.00 1004.9
20260904222154 0 0 0.0 0.0 0.00 0.00 0.00 1005.0
20260904221404 0 0 0.0 0.0 0.00 0.00 0.00 1005.0
20260904220616 0 0 0.0 0.0 0.00 0.00 0.00 1004.9
20260904215827 0 0 0.0 0.0 0.00 0.00 0.00 1004.7
20260904215038 0 0 0.0 0.0 0.00 0.00 0.00 1004.6
20260904214247 0 0 0.0 0.0 0.00 0.00 0.00 1004.6
20260904213455 0 0 0.0 0.0 0.00 0.00 0.00 1004.2
20260904212707 0 0 0.0 0.0 0.00 0.00 0.00 1004.1
20260904211919 0 0 0.0 0.0 0.00 0.00 0.00 1004.0
20260904211131 0 0 0.0 0.0 0.00 0.00 0.00 1003.9
20260904210342 0 0 0.0 0.0 0.00 0.00 0.00 1004.0
20260904205554 0 0 0.0 0.0 0.00 0.00 0.00 1004.0
20260904204802 0 0 0.0 0.0 0.00 0.00 0.00 1004.0
20260904204015 0 0 0.0 0.0 0.00 0.00 0.00 1004.1
20260904203224 0 0 0.0 0.0 0.00 0.00 0.00 1004.2
20260904202435 0 0 0.0 0.0 0.00 0.00 0.00 1004.3
20260904201647 0 0 0.0 0.0 0.00 0.00 0.00 1004.3
20260904200858 0 0 0.0 0.0 0.00 0.00 0.00 1004.3
20260904200110 0 0 0.0 0.0 0.00 0.00 0.00 1004.4
20260904195321 0 0 0.0 0.0 0.00 0.00 0.00 1004.5
20260904194534 0 0 0.0 0.0 0.00 0.00 0.00 1004.5
20260904193746 0 0 0.0 0.0 0.00 0.00 0.00 1004.4
20260904192957 0 0 0.0 0.0 0.00 0.00 0.00 1004.4
20260904192209 0 0 0.0 0.0 0.00 0.00 0.00 1004.4
20260904191421 0 0 0.0 0.0 0.00 0.00 0.00 1004.4
20260904190633 0 0 0.0 0.0 0.00 0.00 0.00 1004.4
20260904185843 0 0 0.0 0.0 0.00 0.00 0.00 1004.4
20260904185054 0 0 0.0 0.0 0.00 0.00 0.00 1004.3
20260904184306 0 0 0.0 0.0 0.00 0.00 0.00 1004.3
20260904183518 0 0 0.0 0.0 0.00 0.00 0.00 1004.3
20260904182728 0 0 0.0 0.0 0.00 0.00 0.00 1004.5
20260904181940 0 0 0.0 0.0 0.00 0.00 0.00 1004.5
20260904181153 0 0 0.0 0.0 0.00 0.00 0.00 1004.6
20260904180404 0 0 0.0 0.0 0.00 0.00 0.00 1004.5
20260904175615 0 0 0.0 0.0 0.00 0.00 0.00 1004.4
20260904174831 0 0 0.0 0.0 0.00 0.00 0.00 1004.5
20260904174039 0 0 0.0 0.0 0.00 0.00 0.00 1004.5
20260904173251 0 0 0.0 0.0 0.00 0.00 0.00 1004.5
20260904172503 0 0 0.0 0.0 0.00 0.00 0.00 1004.4
20260904171714 0 0 0.0 0.0 0.00 0.00 0.00 1004.4
20260904170926 0 0 0.0 0.0 0.00 0.00 0.00 1004.2